Time,TemperatureF,DewpointF,PressureIn,WindDirection,WindDirectionDegrees,WindSpeedMPH,WindSpeedGustMPH,Humidity,HourlyPrecipIn,Conditions,Clouds,dailyrainin,SoftwareType,DateUTC
2013-03-19 00:05:00,30.4,29.4,29.96,North,32767,-999.0,0.0,96,0.00,,,0.00,Wunderground v.1.15,2013-03-19 04:05:00,
2013-03-19 00:10:00,30.6,29.6,29.95,North,32767,-999.0,0.0,96,0.00,,,0.00,Wunderground v.1.15,2013-03-19 04:10:00,
2013-03-19 00:15:00,30.7,29.7,29.94,North,32767,-999.0,0.0,96,0.00,,,0.00,Wunderground v.1.15,2013-03-19 04:15:00,
2013-03-19 00:20:00,30.8,29.8,29.93,North,32767,-999.0,0.0,96,0.00,,,0.00,Wunderground v.1.15,2013-03-19 04:20:00,
2013-03-19 00:25:00,30.9,29.9,29.94,North,32767,-999.0,0.0,96,0.00,,,0.00,Wunderground v.1.15,2013-03-19 04:25:00,
2013-03-19 00:35:00,31.0,30.0,29.94,North,32767,-999.0,0.0,96,0.00,,,0.00,Wunderground v.1.15,2013-03-19 04:35:00,
2013-03-19 00:45:00,31.3,30.3,29.94,North,32767,-999.0,0.0,96,0.00,,,0.00,Wunderground v.1.15,2013-03-19 04:45:00,
2013-03-19 00:55:00,31.6,30.6,29.93,North,32767,-999.0,0.0,96,0.00,,,0.00,Wunderground v.1.15,2013-03-19 04:55:00,
2013-03-19 01:00:00,31.8,30.8,29.92,North,32767,-999.0,0.0,96,0.00,,,0.00,Wunderground v.1.15,2013-03-19 05:00:00,
2013-03-19 01:10:00,31.9,30.9,29.91,North,32767,-999.0,0.0,96,0.00,,,0.00,Wunderground v.1.15,2013-03-19 05:10:00,
2013-03-19 01:15:00,31.9,30.9,29.91,North,32767,-999.0,0.0,96,0.00,,,0.00,Wunderground v.1.15,2013-03-19 05:15:00,
2013-03-19 01:20:00,31.9,30.9,29.91,North,32767,-999.0,0.0,96,0.00,,,0.00,Wunderground v.1.15,2013-03-19 05:20:00,
2013-03-19 01:30:00,31.9,30.9,29.91,North,32767,-999.0,0.0,96,0.00,,,0.00,Wunderground v.1.15,2013-03-19 05:30:00,
2013-03-19 01:35:00,32.0,31.0,29.91,North,32767,-999.0,0.0,96,0.00,,,0.00,Wunderground v.1.15,2013-03-19 05:35:00,
2013-03-19 01:45:00,32.1,31.1,29.92,North,32767,-999.0,0.0,96,0.00,,,0.00,Wunderground v.1.15,2013-03-19 05:45:00,
2013-03-19 01:55:00,32.1,31.1,29.92,North,32767,-999.0,0.0,96,0.00,,,0.00,Wunderground v.1.15,2013-03-19 05:55:00,
2013-03-19 02:00:00,32.1,31.1,29.92,North,32767,-999.0,0.0,96,0.00,,,0.00,Wunderground v.1.15,2013-03-19 06:00:00,
2013-03-19 02:05:00,32.2,31.2,29.91,North,32767,-999.0,0.0,96,0.00,,,0.00,Wunderground v.1.15,2013-03-19 06:05:00,
2013-03-19 02:15:00,32.1,31.1,29.91,North,32767,-999.0,0.0,96,0.00,,,0.00,Wunderground v.1.15,2013-03-19 06:15:00,
2013-03-19 02:25:00,32.0,31.0,29.91,North,32767,-999.0,0.0,96,0.00,,,0.00,Wunderground v.1.15,2013-03-19 06:25:00,
2013-03-19 02:30:00,32.0,31.0,29.90,North,32767,-999.0,0.0,96,0.00,,,0.00,Wunderground v.1.15,2013-03-19 06:30:00,
2013-03-19 02:40:00,31.9,30.9,29.89,North,32767,-999.0,0.0,96,0.00,,,0.00,Wunderground v.1.15,2013-03-19 06:40:00,
2013-03-19 02:50:00,31.8,30.8,29.89,North,32767,-999.0,0.0,96,0.00,,,0.00,Wunderground v.1.15,2013-03-19 06:50:00,
2013-03-19 03:00:00,31.8,30.8,29.88,North,32767,-999.0,0.0,96,0.00,,,0.00,Wunderground v.1.15,2013-03-19 07:00:00,
2013-03-19 03:10:00,31.9,30.9,29.87,North,32767,-999.0,0.0,96,0.00,,,0.00,Wunderground v.1.15,2013-03-19 07:10:00,
2013-03-19 03:15:00,31.9,30.9,29.86,North,32767,-999.0,0.0,96,0.00,,,0.00,Wunderground v.1.15,2013-03-19 07:15:00,
2013-03-19 03:25:00,31.9,30.9,29.86,North,32767,-999.0,0.0,96,0.00,,,0.00,Wunderground v.1.15,2013-03-19 07:25:00,
2013-03-19 03:35:00,31.9,30.9,29.84,North,32767,-999.0,0.0,96,0.00,,,0.00,Wunderground v.1.15,2013-03-19 07:35:00,
2013-03-19 03:40:00,31.9,30.9,29.84,North,32767,-999.0,0.0,96,0.00,,,0.00,Wunderground v.1.15,2013-03-19 07:40:00,
2013-03-19 03:45:00,31.9,30.9,29.84,North,32767,-999.0,0.0,96,0.00,,,0.00,Wunderground v.1.15,2013-03-19 07:45:00,
2013-03-19 03:55:00,32.0,31.0,29.84,North,32767,-999.0,0.0,96,0.00,,,0.00,Wunderground v.1.15,2013-03-19 07:55:00,
2013-03-19 04:00:00,32.0,31.0,29.84,North,32767,-999.0,0.0,96,0.00,,,0.00,Wunderground v.1.15,2013-03-19 08:00:00,
2013-03-19 04:10:00,32.0,31.0,29.84,North,32767,-999.0,0.0,96,0.00,,,0.00,Wunderground v.1.15,2013-03-19 08:10:00,
2013-03-19 04:15:00,32.0,31.0,29.85,North,32767,-999.0,0.0,96,0.00,,,0.00,Wunderground v.1.15,2013-03-19 08:15:00,
2013-03-19 04:25:00,32.1,31.1,29.84,North,32767,-999.0,0.0,96,0.00,,,0.00,Wunderground v.1.15,2013-03-19 08:25:00,
2013-03-19 04:30:00,32.1,31.1,29.84,North,32767,-999.0,0.0,96,0.00,,,0.00,Wunderground v.1.15,2013-03-19 08:30:00,
2013-03-19 04:35:00,32.1,31.1,29.83,North,32767,-999.0,0.0,96,0.00,,,0.00,Wunderground v.1.15,2013-03-19 08:35:00,
2013-03-19 04:40:00,32.1,31.1,29.83,North,32767,-999.0,0.0,96,0.00,,,0.00,Wunderground v.1.15,2013-03-19 08:40:00,
2013-03-19 04:45:00,32.1,31.1,29.83,North,32767,-999.0,0.0,96,0.00,,,0.00,Wunderground v.1.15,2013-03-19 08:45:00,
2013-03-19 04:55:00,32.1,31.1,29.82,North,32767,-999.0,0.0,96,0.00,,,0.00,Wunderground v.1.15,2013-03-19 08:55:00,
2013-03-19 05:00:00,32.0,31.0,29.82,North,32767,-999.0,0.0,96,0.00,,,0.00,Wunderground v.1.15,2013-03-19 09:00:00,
2013-03-19 05:10:00,32.0,31.0,29.81,North,32767,-999.0,0.0,96,0.00,,,0.00,Wunderground v.1.15,2013-03-19 09:10:00,
2013-03-19 05:15:00,32.0,31.0,29.80,North,32767,-999.0,0.0,96,0.00,,,0.00,Wunderground v.1.15,2013-03-19 09:15:00,
2013-03-19 05:20:00,32.1,31.1,29.80,North,32767,-999.0,0.0,96,0.00,,,0.00,Wunderground v.1.15,2013-03-19 09:20:00,
2013-03-19 05:30:00,32.1,31.1,29.80,North,32767,-999.0,0.0,96,0.00,,,0.00,Wunderground v.1.15,2013-03-19 09:30:00,
2013-03-19 05:35:00,32.1,31.3,29.80,North,32767,-999.0,0.0,97,0.00,,,0.00,Wunderground v.1.15,2013-03-19 09:35:00,
2013-03-19 05:45:00,32.1,31.3,29.80,North,32767,-999.0,0.0,97,0.00,,,0.00,Wunderground v.1.15,2013-03-19 09:45:00,
2013-03-19 05:50:00,32.1,31.3,29.79,North,32767,-999.0,0.0,97,0.00,,,0.00,Wunderground v.1.15,2013-03-19 09:50:00,
2013-03-19 06:00:00,32.1,31.3,29.79,North,32767,-999.0,0.0,97,0.00,,,0.00,Wunderground v.1.15,2013-03-19 10:00:00,
2013-03-19 06:10:00,32.1,31.3,29.78,North,32767,-999.0,0.0,97,0.00,,,0.00,Wunderground v.1.15,2013-03-19 10:10:00,
2013-03-19 06:15:00,32.1,31.3,29.79,North,32767,-999.0,0.0,97,0.00,,,0.00,Wunderground v.1.15,2013-03-19 10:15:00,
2013-03-19 06:20:00,32.1,31.3,29.79,North,32767,-999.0,0.0,97,0.00,,,0.00,Wunderground v.1.15,2013-03-19 10:20:00,
2013-03-19 06:25:00,32.1,31.3,29.78,North,32767,-999.0,0.0,97,0.00,,,0.00,Wunderground v.1.15,2013-03-19 10:25:00,
2013-03-19 06:30:00,32.1,31.3,29.79,North,32767,-999.0,0.0,97,0.00,,,0.00,Wunderground v.1.15,2013-03-19 10:30:00,
2013-03-19 06:35:00,32.1,31.3,29.79,North,32767,-999.0,0.0,97,0.00,,,0.00,Wunderground v.1.15,2013-03-19 10:35:00,
2013-03-19 06:45:00,32.1,31.3,29.79,North,32767,-999.0,0.0,97,0.00,,,0.00,Wunderground v.1.15,2013-03-19 10:45:00,
2013-03-19 06:50:00,32.1,31.3,29.79,North,32767,-999.0,0.0,97,0.00,,,0.00,Wunderground v.1.15,2013-03-19 10:50:00,
2013-03-19 07:00:00,32.2,31.4,29.80,North,32767,-999.0,0.0,97,0.00,,,0.00,Wunderground v.1.15,2013-03-19 11:00:00,
2013-03-19 07:10:00,32.2,31.4,29.79,North,32767,-999.0,0.0,97,0.00,,,0.00,Wunderground v.1.15,2013-03-19 11:10:00,
2013-03-19 07:15:00,32.2,31.4,29.78,North,32767,-999.0,0.0,97,0.00,,,0.00,Wunderground v.1.15,2013-03-19 11:15:00,
2013-03-19 07:20:00,32.2,31.4,29.78,North,32767,-999.0,0.0,97,0.00,,,0.00,Wunderground v.1.15,2013-03-19 11:20:00,
2013-03-19 07:30:00,32.2,31.4,29.78,North,32767,-999.0,0.0,97,0.00,,,0.00,Wunderground v.1.15,2013-03-19 11:30:00,
2013-03-19 07:40:00,32.2,31.4,29.77,North,32767,-999.0,0.0,97,0.00,,,0.00,Wunderground v.1.15,2013-03-19 11:40:00,
2013-03-19 07:50:00,32.2,31.4,29.78,North,32767,-999.0,0.0,97,0.00,,,0.00,Wunderground v.1.15,2013-03-19 11:50:00,
2013-03-19 08:00:00,32.3,31.5,29.78,North,32767,-999.0,0.0,97,0.00,,,0.00,Wunderground v.1.15,2013-03-19 12:00:00,
2013-03-19 08:10:00,32.3,31.5,29.77,North,32767,-999.0,0.0,97,0.00,,,0.00,Wunderground v.1.15,2013-03-19 12:10:00,
2013-03-19 08:20:00,32.3,31.5,29.77,North,32767,-999.0,0.0,97,0.00,,,0.00,Wunderground v.1.15,2013-03-19 12:20:00,
2013-03-19 08:25:00,32.3,31.5,29.78,North,32767,-999.0,0.0,97,0.00,,,0.00,Wunderground v.1.15,2013-03-19 12:25:00,